Location: Koslow
(50.3020°N, 18.5663°E)
Time: 23:45:55
(UTC+00:00)

X-37B - Pass Details

Date: 07 August 2021
Orbit: 381 x 393 km, 45.0° (Epoch: 29 August)

Event Time Altitude Azimuth Distance (km) Brightness Sun altitude
Exits shadow 01:00:59 18° 135° (SE) 1,032 2.6 -17.5°
Drops below altitude 10° 01:02:23 10° 111° (ESE) 1,397 3.5 -17.4°
Sets 01:04:45 0° 95° (E) 2,252 4.9 -17.2°
